sat.trackr.live / text

‹ back to catalog

STARLINK-11316 [DTC]

NORAD 61875 · 2024-204B

PAYLOAD ACTIVE UNKNOWN

§ Identity

Operator
Country
US
Launch date
2024-11-09
Launch site
AFWTR
Launch vehicle
Mass (kg)
RCS (m²)

Purposes: comms

External: N2YO · Heavens-Above · Gunter

§ Orbital elements

Epoch: 2026-09-21T21:11:28.763520Z

Period
91.74 min
Inclination
53.1594°
Eccentricity
0.0000660
Mean motion
15.69678013 rev/d
Perigee alt
359.4 km
Apogee alt
360.3 km
Semi-major
6,738.0 km
B*
-1.5510e-5
RAAN
108.7648°
Arg perigee
75.3532°
Mean anomaly
284.7559°
Rev number
10,773

§ Raw data

STARLINK-11316 [DTC]1 61875U 24204B   26264.88297180 -.00002463  00000+0 -15510-4 0  99942 61875  53.1594 108.7648 0000660  75.3532 284.7559 15.69678013107731

JSON: /api/v1/satellites/61875 · /tle

For live sub-satellite position, see the globe view (requires WebGL).

§ Visibility from observer

Set your observer location to see the next 7 days of passes ≥ 10°. The values pass through the URL so the page stays shareable.

No JS? Fill the form by hand. The geolocation button needs JavaScript.